10-05-2023, 00:00:00,    287,    2.0,    8.9,   0.00,   0.00, 1008.4,    0.1, -999.0
10-05-2023, 00:00:11,    287,    1.0,    9.0,   0.00,   0.00, 1008.4,    0.4, -999.0
10-05-2023, 00:00:21,    287,    1.1,    9.0,   0.00,   0.00, 1008.4,    0.6, -999.0
10-05-2023, 00:00:31,    286,    0.1,    8.9,   0.00,   0.00, 1008.3,    0.7, -999.0
10-05-2023, 00:00:41,    286,    0.6,    8.9,   0.00,   0.00, 1008.4,    0.4, -999.0
10-05-2023, 00:00:51,    286,    0.7,    8.9,   0.00,   0.00, 1008.4,    0.5, -999.0
10-05-2023, 00:01:01,    286,    0.0,    8.9,   0.00,   0.00, 1008.3,    0.3, -999.0
10-05-2023, 00:01:10,    286,    0.0,    8.8,   0.00,   0.00, 1008.3,    0.3, -999.0
10-05-2023, 00:01:21,    286,    0.2,    8.9,   0.00,   0.00, 1008.4,    0.3, -999.0
10-05-2023, 00:01:31,    286,    0.0,    9.0,   0.00,   0.00, 1008.3,    0.6, -999.0
10-05-2023, 00:01:40,    301,    1.0,    8.9,   0.00,   0.00, 1008.4,    0.9, -999.0
10-05-2023, 00:01:50,    297,    1.1,    9.0,   0.00,   0.00, 1008.4,    0.3, -999.0
10-05-2023, 00:02:01,    261,    0.4,    8.9,   0.00,   0.00, 1008.4,    0.6, -999.0
10-05-2023, 00:02:11,    261,    0.1,    8.9,   0.00,   0.00, 1008.3,    0.4, -999.0
10-05-2023, 00:02:20,    266,    0.5,    8.8,   0.00,   0.00, 1008.4,    0.4, -999.0
10-05-2023, 00:02:30,    303,    2.1,    9.0,   0.00,   0.00, 1008.4,    0.6, -999.0
10-05-2023, 00:02:41,    279,    0.9,    9.0,   0.00,   0.00, 1008.4,    0.6, -999.0
10-05-2023, 00:02:50,    279,    0.0,    8.9,   0.00,   0.00, 1008.4,    0.4, -999.0
10-05-2023, 00:03:00,    318,    1.2,    8.9,   0.00,   0.00, 1008.4,    1.2, -999.0
10-05-2023, 00:03:10,    315,    0.9,    8.9,   0.00,   0.00, 1008.4,    0.8, -999.0
10-05-2023, 00:03:20,    315,    0.1,    8.9,   0.00,   0.00, 1008.4,    0.6, -999.0
10-05-2023, 00:03:30,    315,    1.1,    8.9,   0.00,   0.00, 1008.4,    0.5, -999.0
10-05-2023, 00:03:40,    314,    0.1,    8.9,   0.00,   0.00, 1008.3,    0.5, -999.0
10-05-2023, 00:03:50,    314,    0.0,    8.9,   0.00,   0.00, 1008.3,    0.4, -999.0
10-05-2023, 00:04:00,    314,    0.0,    8.8,   0.00,   0.00, 1008.3,    0.3, -999.0
10-05-2023, 00:04:10,    314,    0.0,    8.9,   0.00,   0.00, 1008.3,    0.2, -999.0
10-05-2023, 00:04:20,    314,    0.0,    8.8,   0.00,   0.00, 1008.3,    0.3, -999.0
10-05-2023, 00:04:30,    313,    0.2,    8.9,   0.00,   0.00, 1008.3,    0.5, -999.0
10-05-2023, 00:04:40,    313,    0.0,    8.7,   0.00,   0.00, 1008.3,    0.4, -999.0
10-05-2023, 00:04:50,    300,    0.6,    8.9,   0.00,   0.00, 1008.4,    0.7, -999.0
10-05-2023, 00:05:00,    300,    0.3,    8.9,   0.00,   0.00, 1008.4,    0.3, -999.0
10-05-2023, 00:05:10,    300,    0.8,    8.9,   0.00,   0.00, 1008.4,    0.6, -999.0
10-05-2023, 00:05:20,    300,    0.5,    8.9,   0.00,   0.00, 1008.4,    0.7, -999.0
10-05-2023, 00:05:30,    260,    1.1,    8.8,   0.00,   0.00, 1008.4,    0.2, -999.0
10-05-2023, 00:05:40,    264,    0.9,    9.0,   0.00,   0.00, 1008.4,    0.4, -999.0
10-05-2023, 00:05:50,    270,    0.6,    8.9,   0.00,   0.00, 1008.4,    0.5, -999.0
10-05-2023, 00:06:00,    278,    0.4,    8.9,   0.00,   0.00, 1008.4,    0.4, -999.0
10-05-2023, 00:06:10,    279,    1.4,    8.9,   0.00,   0.00, 1008.4,    0.6, -999.0
10-05-2023, 00:06:20,    288,    1.0,    8.9,   0.00,   0.00, 1008.4,    0.7, -999.0
10-05-2023, 00:06:30,    226,    1.4,    8.9,   0.00,   0.00, 1008.4,    0.6, -999.0
10-05-2023, 00:06:40,    225,    0.8,    8.9,   0.00,   0.00, 1008.4,    0.9, -999.0
10-05-2023, 00:06:50,    225,    0.0,    8.9,   0.00,   0.00, 1008.3,    0.4, -999.0
10-05-2023, 00:07:00,    226,    0.0,    8.9,   0.00,   0.00, 1008.3,    0.4, -999.0
10-05-2023, 00:07:10,    226,    0.0,    8.9,   0.00,   0.00, 1008.3,    0.4, -999.0
10-05-2023, 00:07:20,    281,    0.1,    8.9,   0.00,   0.00, 1008.4,    0.5, -999.0
10-05-2023, 00:07:30,    281,    0.0,    8.8,   0.00,   0.00, 1008.3,    0.4, -999.0
10-05-2023, 00:07:40,    244,    0.4,    8.9,   0.00,   0.00, 1008.4,    0.3, -999.0
10-05-2023, 00:07:50,    242,    0.4,    8.9,   0.00,   0.00, 1008.3,    0.6, -999.0
10-05-2023, 00:08:00,    246,    0.8,    8.9,   0.00,   0.00, 1008.4,    0.4, -999.0
10-05-2023, 00:08:10,    247,    0.1,    8.8,   0.00,   0.00, 1008.3,    0.4, -999.0
10-05-2023, 00:08:20,    246,    0.3,    8.9,   0.00,   0.00, 1008.4,    0.4, -999.0
10-05-2023, 00:08:30,    248,    0.4,    8.9,   0.00,   0.00, 1008.4,    0.9, -999.0
10-05-2023, 00:08:40,    245,    0.9,    8.9,   0.00,   0.00, 1008.4,    0.3, -999.0
10-05-2023, 00:08:49,    285,    0.2,    8.9,   0.00,   0.00, 1008.4,    0.5, -999.0
10-05-2023, 00:09:00,    285,    0.0,    8.9,   0.00,   0.00, 1008.3,    0.6, -999.0
10-05-2023, 00:09:10,    285,    0.0,    8.8,   0.00,   0.00, 1008.3,    0.2, -999.0
10-05-2023, 00:09:20,    284,    0.3,    8.8,   0.00,   0.00, 1008.4,    0.5, -999.0
10-05-2023, 00:09:29,    282,    0.1,    8.8,   0.00,   0.00, 1008.3,    0.5, -999.0
10-05-2023, 00:09:40,    282,    0.0,    8.8,   0.00,   0.00, 1008.3,    0.1, -999.0
10-05-2023, 00:09:50,    282,    0.0,    8.8,   0.00,   0.00, 1008.3,    0.4, -999.0
10-05-2023, 00:09:59,    282,    0.0,    8.9,   0.00,   0.00, 1008.3,    0.5, -999.0
10-05-2023, 00:10:09,    283,    0.6,    8.9,   0.00,   0.00, 1008.4,    0.3, -999.0
10-05-2023, 00:10:20,    251,    1.6,    8.8,   0.00,   0.00, 1008.4,    0.7, -999.0
10-05-2023, 00:10:29,    252,    1.7,    8.9,   0.00,   0.00, 1008.4,    0.5, -999.0
10-05-2023, 00:10:39,    258,    1.1,    8.9,   0.00,   0.00, 1008.4,    0.4, -999.0
10-05-2023, 00:10:50,    244,    0.7,    8.9,   0.00,   0.00, 1008.4,    0.4, -999.0
10-05-2023, 00:10:59,    245,    0.2,    8.8,   0.00,   0.00, 1008.3,    0.8, -999.0
10-05-2023, 00:11:09,    246,    0.1,    8.7,   0.00,   0.00, 1008.3,    0.8, -999.0
10-05-2023, 00:11:19,    256,    1.0,    8.9,   0.00,   0.00, 1008.4,    0.5, -999.0
10-05-2023, 00:11:30,    256,    0.1,    8.8,   0.00,   0.00, 1008.3,    0.6, -999.0
10-05-2023, 00:11:39,    256,    0.0,    8.8,   0.00,   0.00, 1008.3,    0.3, -999.0
10-05-2023, 00:11:49,    295,    0.6,    8.8,   0.00,   0.00, 1008.3,    0.5, -999.0
10-05-2023, 00:11:59,    295,    0.4,    8.9,   0.00,   0.00, 1008.3,    0.6, -999.0
10-05-2023, 00:12:09,    295,    0.0,    8.7,   0.00,   0.00, 1008.2,    0.5, -999.0
10-05-2023, 00:12:19,    296,    0.0,    8.8,   0.00,   0.00, 1008.2,    0.0, -999.0
10-05-2023, 00:12:29,    292,    0.3,    8.8,   0.00,   0.00, 1008.3,    0.3, -999.0
10-05-2023, 00:12:39,    264,    1.0,    8.9,   0.00,   0.00, 1008.4,    0.5, -999.0
10-05-2023, 00:12:49,    260,    2.1,    8.9,   0.00,   0.00, 1008.4,    0.6, -999.0
10-05-2023, 00:12:59,    268,    2.8,    8.9,   0.00,   0.00, 1008.3,    0.5, -999.0
10-05-2023, 00:13:09,    268,    2.6,    8.9,   0.00,   0.00, 1008.4,    0.5, -999.0
10-05-2023, 00:13:19,    283,    1.7,    8.9,   0.00,   0.00, 1008.4,    0.6, -999.0
10-05-2023, 00:13:29,    258,    1.1,    8.9,   0.00,   0.00, 1008.4,    0.5, -999.0
10-05-2023, 00:13:39,    258,    0.2,    8.8,   0.00,   0.00, 1008.3,    0.5, -999.0
10-05-2023, 00:13:49,    258,    0.6,    8.8,   0.00,   0.00, 1008.3,    0.5, -999.0
10-05-2023, 00:13:59,    257,    0.2,    8.8,   0.00,   0.00, 1008.3,    0.5, -999.0
10-05-2023, 00:14:09,    257,    0.0,    8.8,   0.00,   0.00, 1008.2,    0.3, -999.0
10-05-2023, 00:14:19,    258,    0.0,    8.8,   0.00,   0.00, 1008.2,    0.7, -999.0
10-05-2023, 00:14:29,    257,    0.5,    8.8,   0.00,   0.00, 1008.3,    0.5, -999.0
10-05-2023, 00:14:39,    257,    0.5,    8.9,   0.00,   0.00, 1008.4,    0.7, -999.0
10-05-2023, 00:14:49,    262,    1.3,    8.9,   0.00,   0.00, 1008.4,    0.4, -999.0
10-05-2023, 00:14:59,    259,    0.4,    8.7,   0.00,   0.00, 1008.3,    0.6, -999.0
10-05-2023, 00:15:09,    259,    0.2,    8.8,   0.00,   0.00, 1008.3,    0.5, -999.0
10-05-2023, 00:15:19,    260,    0.2,    8.8,   0.00,   0.00, 1008.3,    0.4, -999.0
10-05-2023, 00:15:29,    260,    0.6,    8.9,   0.00,   0.00, 1008.4,    0.3, -999.0
10-05-2023, 00:15:39,    260,    0.0,    8.8,   0.00,   0.00, 1008.3,    0.4, -999.0
10-05-2023, 00:15:49,    259,    0.0,    8.8,   0.00,   0.00, 1008.3,    0.4, -999.0
10-05-2023, 00:15:59,    260,    0.0,    8.9,   0.00,   0.00, 1008.3,    0.6, -999.0
10-05-2023, 00:16:09,    263,    0.1,    8.8,   0.00,   0.00, 1008.3,    0.7, -999.0
10-05-2023, 00:16:19,    286,    0.9,    8.7,   0.00,   0.00, 1008.4,    0.6, -999.0
10-05-2023, 00:16:29,    287,    0.0,    8.8,   0.00,   0.00, 1008.3,    0.4, -999.0
10-05-2023, 00:16:39,    286,    0.3,    8.8,   0.00,   0.00, 1008.4,    0.7, -999.0
10-05-2023, 00:16:49,    286,    0.0,    8.8,   0.00,   0.00, 1008.3,    0.5, -999.0
10-05-2023, 00:16:59,    286,    0.2,    8.8,   0.00,   0.00, 1008.3,    0.3, -999.0
10-05-2023, 00:17:09,    287,    0.0,    8.7,   0.00,   0.00, 1008.3,    0.6, -999.0
10-05-2023, 00:17:19,    283,    0.1,    8.8,   0.00,   0.00, 1008.3,    0.5, -999.0
10-05-2023, 00:17:29,    282,    0.0,    8.8,   0.00,   0.00, 1008.3,    0.4, -999.0
10-05-2023, 00:17:38,    282,    0.0,    8.7,   0.00,   0.00, 1008.3,    0.5, -999.0
10-05-2023, 00:17:48,    283,    0.0,    8.7,   0.00,   0.00, 1008.3,    0.5, -999.0
10-05-2023, 00:17:59,    283,    0.1,    8.8,   0.00,   0.00, 1008.3,    0.3, -999.0
10-05-2023, 00:18:09,    283,    0.0,    8.7,   0.00,   0.00, 1008.3,    0.3, -999.0
10-05-2023, 00:18:18,    255,    0.5,    8.8,   0.00,   0.00, 1008.3,    0.5, -999.0
10-05-2023, 00:18:29,    257,    1.5,    8.9,   0.00,   0.00, 1008.4,    0.4, -999.0
10-05-2023, 00:18:39,    255,    0.4,    8.9,   0.00,   0.00, 1008.4,    0.5, -999.0
10-05-2023, 00:18:48,    256,    0.0,    8.7,   0.00,   0.00, 1008.3,    0.4, -999.0
10-05-2023, 00:18:58,    261,    1.7,    8.7,   0.00,   0.00, 1008.4,    0.6, -999.0
10-05-2023, 00:19:09,    251,    1.8,    8.9,   0.00,   0.00, 1008.4,    0.5, -999.0
10-05-2023, 00:19:18,    257,    0.4,    8.9,   0.00,   0.00, 1008.4,    0.4, -999.0
10-05-2023, 00:19:28,    271,    1.7,    8.8,   0.00,   0.00, 1008.4,    0.6, -999.0
10-05-2023, 00:19:38,    267,    3.0,    8.8,   0.00,   0.00, 1008.4,    0.4, -999.0
10-05-2023, 00:19:48,    268,    1.6,    8.8,   0.00,   0.00, 1008.4,    0.4, -999.0
10-05-2023, 00:19:58,    238,    0.9,    8.9,   0.00,   0.00, 1008.4,    0.3, -999.0
10-05-2023, 00:20:08,    238,    0.4,    8.7,   0.00,   0.00, 1008.3,    0.8, -999.0
10-05-2023, 00:20:18,    216,    0.9,    8.8,   0.00,   0.00, 1008.4,    0.3, -999.0
10-05-2023, 00:20:28,    230,    1.1,    8.8,   0.00,   0.00, 1008.4,    0.5, -999.0
10-05-2023, 00:20:38,    230,    0.1,    8.8,   0.00,   0.00, 1008.3,    0.3, -999.0
10-05-2023, 00:20:48,    236,    1.0,    8.8,   0.00,   0.00, 1008.4,    0.6, -999.0
10-05-2023, 00:20:58,    270,    0.5,    8.9,   0.00,   0.00, 1008.4,    0.5, -999.0
10-05-2023, 00:21:08,    271,    0.4,    8.8,   0.00,   0.00, 1008.4,    0.5, -999.0
10-05-2023, 00:21:18,    271,    0.6,    8.9,   0.00,   0.00, 1008.4,    0.5, -999.0
10-05-2023, 00:21:28,    270,    0.4,    8.8,   0.00,   0.00, 1008.4,    0.3, -999.0
10-05-2023, 00:21:38,    247,    0.5,    8.9,   0.00,   0.00, 1008.4,    0.6, -999.0
10-05-2023, 00:21:48,    247,    0.6,    8.8,   0.00,   0.00, 1008.4,    0.4, -999.0
10-05-2023, 00:21:58,    248,    0.2,    8.7,   0.00,   0.00, 1008.3,    0.7, -999.0
10-05-2023, 00:22:08,    247,    0.1,    8.8,   0.00,   0.00, 1008.3,    0.3, -999.0
10-05-2023, 00:22:18,    248,    0.1,    8.8,   0.00,   0.00, 1008.3,    0.5, -999.0
10-05-2023, 00:22:28,    249,    1.3,    8.8,   0.00,   0.00, 1008.4,    0.6, -999.0
10-05-2023, 00:22:38,    272,    0.8,    8.8,   0.00,   0.00, 1008.4,    0.6, -999.0
10-05-2023, 00:22:48,    245,    1.9,    8.9,   0.00,   0.00, 1008.4,    0.3, -999.0
10-05-2023, 00:22:58,    244,    0.6,    8.8,   0.00,   0.00, 1008.3,    0.5, -999.0
10-05-2023, 00:23:08,    245,    0.0,    8.7,   0.00,   0.00, 1008.2,    0.3, -999.0
10-05-2023, 00:23:18,    247,    0.1,    8.7,   0.00,   0.00, 1008.3,    0.7, -999.0
10-05-2023, 00:23:28,    247,    0.1,    8.7,   0.00,   0.00, 1008.3,    0.6, -999.0
10-05-2023, 00:23:38,    247,    0.0,    8.6,   0.00,   0.00, 1008.2,    0.6, -999.0
10-05-2023, 00:23:48,    247,    0.1,    8.7,   0.00,   0.00, 1008.3,    0.4, -999.0
10-05-2023, 00:23:58,    238,    0.2,    8.8,   0.00,   0.00, 1008.3,    0.5, -999.0
10-05-2023, 00:24:08,    240,    0.5,    8.8,   0.00,   0.00, 1008.4,    0.7, -999.0
10-05-2023, 00:24:18,    238,    0.6,    8.8,   0.00,   0.00, 1008.3,    0.6, -999.0
10-05-2023, 00:24:28,    238,    0.1,    8.8,   0.00,   0.00, 1008.3,    0.6, -999.0
10-05-2023, 00:24:38,    238,    0.0,    8.6,   0.00,   0.00, 1008.2,    0.4, -999.0
10-05-2023, 00:24:48,    238,    0.0,    8.7,   0.00,   0.00, 1008.2,    0.4, -999.0
10-05-2023, 00:24:58,    238,    0.0,    8.7,   0.00,   0.00, 1008.3,    0.3, -999.0
10-05-2023, 00:25:08,    239,    0.0,    8.7,   0.00,   0.00, 1008.3,    0.5, -999.0
10-05-2023, 00:25:17,    239,    0.1,    8.9,   0.00,   0.00, 1008.3,    0.4, -999.0
10-05-2023, 00:25:28,    270,    0.0,    8.7,   0.00,   0.00, 1008.2,    0.4, -999.0
10-05-2023, 00:25:38,    274,    0.5,    8.7,   0.00,   0.00, 1008.3,    0.6, -999.0
10-05-2023, 00:25:48,    265,    1.0,    8.9,   0.00,   0.00, 1008.4,    0.4, -999.0
10-05-2023, 00:25:57,    263,    1.4,    8.8,   0.00,   0.00, 1008.4,    0.6, -999.0
10-05-2023, 00:26:08,    258,    0.2,    8.8,   0.00,   0.00, 1008.4,    0.5, -999.0
10-05-2023, 00:26:18,    259,    0.0,    8.8,   0.00,   0.00, 1008.3,    0.5, -999.0
10-05-2023, 00:26:27,    287,    0.7,    8.8,   0.00,   0.00, 1008.4,    0.6, -999.0
10-05-2023, 00:26:38,    282,    0.9,    8.8,   0.00,   0.00, 1008.4,    0.1, -999.0
10-05-2023, 00:26:48,    281,    0.3,    8.7,   0.00,   0.00, 1008.3,    0.2, -999.0
10-05-2023, 00:26:57,    286,    0.8,    8.8,   0.00,   0.00, 1008.3,    0.3, -999.0
10-05-2023, 00:27:07,    287,    0.0,    8.7,   0.00,   0.00, 1008.2,    0.4, -999.0
10-05-2023, 00:27:18,    287,    0.0,    8.7,   0.00,   0.00, 1008.3,    0.4, -999.0
10-05-2023, 00:27:28,    287,    0.7,    8.8,   0.00,   0.00, 1008.4,    0.5, -999.0
10-05-2023, 00:27:37,    287,    0.4,    8.8,   0.00,   0.00, 1008.4,    0.4, -999.0
10-05-2023, 00:27:47,    282,    0.8,    8.8,   0.00,   0.00, 1008.4,    0.6, -999.0
10-05-2023, 00:27:58,    283,    0.4,    8.7,   0.00,   0.00, 1008.4,    0.4, -999.0
10-05-2023, 00:28:07,    283,    0.1,    8.7,   0.00,   0.00, 1008.3,    0.6, -999.0
10-05-2023, 00:28:17,    283,    0.1,    8.7,   0.00,   0.00, 1008.3,    0.5, -999.0
10-05-2023, 00:28:27,    283,    0.1,    8.7,   0.00,   0.00, 1008.3,    0.3, -999.0
10-05-2023, 00:28:38,    283,    0.1,    8.7,   0.00,   0.00, 1008.3,    0.5, -999.0
10-05-2023, 00:28:47,    283,    0.6,    8.7,   0.00,   0.00, 1008.4,    0.4, -999.0
10-05-2023, 00:28:57,    283,    0.0,    8.7,   0.00,   0.00, 1008.3,    0.2, -999.0
10-05-2023, 00:29:07,    283,    0.6,    8.7,   0.00,   0.00, 1008.4,    0.5, -999.0
10-05-2023, 00:29:17,    283,    0.4,    8.8,   0.00,   0.00, 1008.4,    0.5, -999.0
10-05-2023, 00:29:27,    284,    0.0,    8.7,   0.00,   0.00, 1008.3,    0.2, -999.0
10-05-2023, 00:29:37,    283,    0.0,    8.7,   0.00,   0.00, 1008.3,    0.4, -999.0
10-05-2023, 00:29:47,    283,    0.2,    8.7,   0.00,   0.00, 1008.3,    0.5, -999.0
10-05-2023, 00:29:57,    281,    0.4,    8.7,   0.00,   0.00, 1008.4,    0.5, -999.0
10-05-2023, 00:30:07,    283,    0.6,    8.7,   0.00,   0.00, 1008.4,    0.4, -999.0
10-05-2023, 00:30:17,    283,    0.7,    8.7,   0.00,   0.00, 1008.4,    0.5, -999.0
10-05-2023, 00:30:27,    283,    0.1,    8.7,   0.00,   0.00, 1008.3,    0.5, -999.0
10-05-2023, 00:30:37,    283,    0.2,    8.7,   0.00,   0.00, 1008.3,    0.6, -999.0
10-05-2023, 00:30:47,    283,    0.0,    8.6,   0.00,   0.00, 1008.2,    0.3, -999.0
10-05-2023, 00:30:57,    283,    0.0,    8.6,   0.00,   0.00, 1008.2,    0.4, -999.0
10-05-2023, 00:31:07,    283,    0.3,    8.6,   0.00,   0.00, 1008.3,    0.5, -999.0
10-05-2023, 00:31:17,    283,    0.5,    8.7,   0.00,   0.00, 1008.3,    0.4, -999.0
10-05-2023, 00:31:27,    283,    0.5,    8.8,   0.00,   0.00, 1008.3,    0.4, -999.0
10-05-2023, 00:31:37,    283,    0.0,    8.7,   0.00,   0.00, 1008.3,    0.6, -999.0
10-05-2023, 00:31:47,    283,    0.0,    8.7,   0.00,   0.00, 1008.3,    0.8, -999.0
10-05-2023, 00:31:57,    283,    0.5,    8.7,   0.00,   0.00, 1008.3,    0.3, -999.0
10-05-2023, 00:32:07,    283,    0.0,    8.6,   0.00,   0.00, 1008.3,    0.4, -999.0
10-05-2023, 00:32:17,    289,    0.1,    8.7,   0.00,   0.00, 1008.3,    0.4, -999.0
10-05-2023, 00:32:27,    283,    0.0,    8.6,   0.00,   0.00, 1008.2,    0.4, -999.0
10-05-2023, 00:32:37,    283,    0.0,    8.6,   0.00,   0.00, 1008.2,    0.3, -999.0
10-05-2023, 00:32:47,    283,    0.0,    8.6,   0.00,   0.00, 1008.2,    0.6, -999.0
10-05-2023, 00:32:57,    283,    0.0,    8.6,   0.00,   0.00, 1008.2,    0.4, -999.0
10-05-2023, 00:33:07,    283,    0.0,    8.7,   0.00,   0.00, 1008.2,    0.5, -999.0
10-05-2023, 00:33:17,    283,    0.3,    8.8,   0.00,   0.00, 1008.4,    0.8, -999.0
10-05-2023, 00:33:27,    283,    0.3,    8.8,   0.00,   0.00, 1008.3,    0.4, -999.0
10-05-2023, 00:33:36,    283,    0.0,    8.7,   0.00,   0.00, 1008.3,    0.4, -999.0
10-05-2023, 00:33:47,    283,    0.0,    8.6,   0.00,   0.00, 1008.2,    0.5, -999.0
10-05-2023, 00:33:57,    283,    0.0,    8.6,   0.00,   0.00, 1008.3,    0.3, -999.0
10-05-2023, 00:34:07,    283,    0.0,    8.6,   0.00,   0.00, 1008.2,    0.5, -999.0
10-05-2023, 00:34:17,    283,    0.0,    8.5,   0.00,   0.00, 1008.3,    0.3, -999.0
10-05-2023, 00:34:27,    283,    0.0,    8.6,   0.00,   0.00, 1008.2,    0.4, -999.0
10-05-2023, 00:34:37,    283,    0.0,    8.6,   0.00,   0.00, 1008.3,    0.4, -999.0
10-05-2023, 00:34:46,    283,    0.0,    8.6,   0.00,   0.00, 1008.3,    0.4, -999.0
10-05-2023, 00:34:57,    283,    0.0,    8.6,   0.00,   0.00, 1008.2,    0.5, -999.0
10-05-2023, 00:35:07,    283,    0.0,    8.5,   0.00,   0.00, 1008.2,    0.5, -999.0
10-05-2023, 00:35:17,    284,    0.0,    8.6,   0.00,   0.00, 1008.2,    0.5, -999.0
10-05-2023, 00:35:26,    283,    0.0,    8.6,   0.00,   0.00, 1008.2,    0.3, -999.0
10-05-2023, 00:35:37,    283,    0.0,    8.5,   0.00,   0.00, 1008.3,    0.6, -999.0
10-05-2023, 00:35:47,    283,    0.4,    8.6,   0.00,   0.00, 1008.3,    0.5, -999.0
10-05-2023, 00:35:56,    283,    0.7,    8.6,   0.00,   0.00, 1008.4,    0.4, -999.0
10-05-2023, 00:36:06,    283,    0.1,    8.6,   0.00,   0.00, 1008.3,    0.4, -999.0
10-05-2023, 00:36:17,    283,    0.0,    8.6,   0.00,   0.00, 1008.3,    0.5, -999.0
10-05-2023, 00:36:26,    283,    0.0,    8.6,   0.00,   0.00, 1008.2,    0.5, -999.0
10-05-2023, 00:36:36,    283,    0.0,    8.6,   0.00,   0.00, 1008.2,    0.4, -999.0
10-05-2023, 00:36:46,    283,    0.0,    8.6,   0.00,   0.00, 1008.3,    0.4, -999.0
10-05-2023, 00:36:57,    283,    0.0,    8.6,   0.00,   0.00, 1008.3,    0.5, -999.0
10-05-2023, 00:37:06,    283,    0.0,    8.6,   0.00,   0.00, 1008.2,    0.5, -999.0
10-05-2023, 00:37:16,    283,    0.0,    8.6,   0.00,   0.00, 1008.3,    0.5, -999.0
10-05-2023, 00:37:26,    283,    0.0,    8.6,   0.00,   0.00, 1008.3,    0.6, -999.0
10-05-2023, 00:37:36,    283,    0.2,    8.6,   0.00,   0.00, 1008.3,    0.4, -999.0
10-05-2023, 00:37:46,    283,    0.6,    8.6,   0.00,   0.00, 1008.4,    0.5, -999.0
10-05-2023, 00:37:56,    283,    0.0,    8.6,   0.00,   0.00, 1008.3,    0.7, -999.0
10-05-2023, 00:38:06,    283,    0.0,    8.5,   0.00,   0.00, 1008.3,    0.4, -999.0
10-05-2023, 00:38:16,    283,    0.0,    8.6,   0.00,   0.00, 1008.3,    0.4, -999.0
10-05-2023, 00:38:26,    283,    0.0,    8.6,   0.00,   0.00, 1008.3,    0.5, -999.0
10-05-2023, 00:38:36,    283,    0.0,    8.6,   0.00,   0.00, 1008.3,    0.4, -999.0
10-05-2023, 00:38:46,    283,    0.0,    8.5,   0.00,   0.00, 1008.3,    0.4, -999.0
10-05-2023, 00:38:56,    283,    0.0,    8.7,   0.00,   0.00, 1008.2,    0.4, -999.0
10-05-2023, 00:39:06,    283,    0.0,    8.6,   0.00,   0.00, 1008.3,    0.4, -999.0
10-05-2023, 00:39:16,    283,    0.0,    8.6,   0.00,   0.00, 1008.3,    0.6, -999.0
10-05-2023, 00:39:26,    283,    0.0,    8.6,   0.00,   0.00, 1008.3,    0.3, -999.0
10-05-2023, 00:39:36,    283,    0.3,    8.6,   0.00,   0.00, 1008.3,    0.3, -999.0
10-05-2023, 00:39:46,    283,    0.1,    8.7,   0.00,   0.00, 1008.3,    0.6, -999.0
10-05-2023, 00:39:56,    283,    0.0,    8.5,   0.00,   0.00, 1008.2,    0.4, -999.0
10-05-2023, 00:40:06,    283,    0.0,    8.5,   0.00,   0.00, 1008.2,    0.4, -999.0
10-05-2023, 00:40:16,    283,    0.0,    8.6,   0.00,   0.00, 1008.2,    0.4, -999.0
10-05-2023, 00:40:26,    283,    0.0,    8.6,   0.00,   0.00, 1008.2,    0.5, -999.0
10-05-2023, 00:40:36,    283,    0.0,    8.5,   0.00,   0.00, 1008.2,    0.6, -999.0
10-05-2023, 00:40:46,    283,    0.0,    8.6,   0.00,   0.00, 1008.2,    0.5, -999.0
10-05-2023, 00:40:56,    283,    0.0,    8.6,   0.00,   0.00, 1008.2,    0.3, -999.0
10-05-2023, 00:41:06,    283,    0.0,    8.6,   0.00,   0.00, 1008.3,    0.3, -999.0
10-05-2023, 00:41:16,    283,    0.1,    8.5,   0.00,   0.00, 1008.3,    0.6, -999.0
10-05-2023, 00:41:26,    283,    0.9,    8.7,   0.00,   0.00, 1008.4,    0.4, -999.0
10-05-2023, 00:41:36,    283,    0.3,    8.6,   0.00,   0.00, 1008.3,    0.6, -999.0
10-05-2023, 00:41:46,    283,    0.0,    8.6,   0.00,   0.00, 1008.2,    0.6, -999.0
10-05-2023, 00:41:56,    283,    0.0,    8.6,   0.00,   0.00, 1008.2,    0.4, -999.0
10-05-2023, 00:42:06,    283,    0.0,    8.6,   0.00,   0.00, 1008.2,    0.2, -999.0
10-05-2023, 00:42:16,    283,    0.2,    8.6,   0.00,   0.00, 1008.3,    0.5, -999.0
10-05-2023, 00:42:26,    286,    0.4,    8.6,   0.00,   0.00, 1008.3,    0.4, -999.0
10-05-2023, 00:42:35,    283,    0.0,    8.6,   0.00,   0.00, 1008.2,    0.3, -999.0
10-05-2023, 00:42:46,    283,    0.4,    8.6,   0.00,   0.00, 1008.4,    0.3, -999.0
10-05-2023, 00:42:56,    283,    0.6,    8.7,   0.00,   0.00, 1008.4,    0.5, -999.0
10-05-2023, 00:43:06,    283,    0.0,    8.5,   0.00,   0.00, 1008.2,    0.5, -999.0
10-05-2023, 00:43:16,    283,    0.0,    8.5,   0.00,   0.00, 1008.2,    0.4, -999.0
10-05-2023, 00:43:26,    283,    0.0,    8.6,   0.00,   0.00, 1008.3,    0.6, -999.0
10-05-2023, 00:43:36,    283,    0.0,    8.5,   0.00,   0.00, 1008.2,    0.4, -999.0
10-05-2023, 00:43:45,    283,    0.0,    8.6,   0.00,   0.00, 1008.3,    0.3, -999.0
10-05-2023, 00:43:56,    283,    0.0,    8.6,   0.00,   0.00, 1008.3,    0.3, -999.0
10-05-2023, 00:44:06,    283,    0.0,    8.6,   0.00,   0.00, 1008.3,    0.5, -999.0
10-05-2023, 00:44:15,    283,    0.0,    8.6,   0.00,   0.00, 1008.3,    0.4, -999.0
10-05-2023, 00:44:25,    283,    0.3,    8.6,   0.00,   0.00, 1008.4,    0.5, -999.0
10-05-2023, 00:44:35,    283,    0.0,    8.6,   0.00,   0.00, 1008.3,    0.4, -999.0
10-05-2023, 00:44:46,    283,    0.1,    8.6,   0.00,   0.00, 1008.3,    0.5, -999.0
10-05-2023, 00:44:55,    283,    0.0,    8.5,   0.00,   0.00, 1008.3,    0.3, -999.0
10-05-2023, 00:45:05,    283,    0.0,    8.5,   0.00,   0.00, 1008.3,    0.3, -999.0
10-05-2023, 00:45:16,    283,    0.0,    8.5,   0.00,   0.00, 1008.3,    0.3, -999.0
10-05-2023, 00:45:25,    283,    0.0,    8.6,   0.00,   0.00, 1008.2,    0.3, -999.0
10-05-2023, 00:45:35,    283,    0.0,    8.5,   0.00,   0.00, 1008.2,    0.4, -999.0
10-05-2023, 00:45:45,    283,    0.0,    8.5,   0.00,   0.00, 1008.2,    0.6, -999.0
10-05-2023, 00:45:56,    284,    0.0,    8.5,   0.00,   0.00, 1008.3,    0.4, -999.0
10-05-2023, 00:46:05,    283,    0.1,    8.5,   0.00,   0.00, 1008.3,    0.4, -999.0
10-05-2023, 00:46:15,    283,    0.4,    8.7,   0.00,   0.00, 1008.4,    0.6, -999.0
10-05-2023, 00:46:25,    282,    0.0,    8.6,   0.00,   0.00, 1008.3,    0.4, -999.0
10-05-2023, 00:46:35,    281,    0.0,    8.6,   0.00,   0.00, 1008.2,    0.5, -999.0
10-05-2023, 00:46:45,    282,    0.7,    8.7,   0.00,   0.00, 1008.4,    0.3, -999.0